Location: Castelnau
(43.6639°N, 0.8431°W)
Time: 22:40:41
(UTC+00:00)

Okean 2 - Pass Details

Date: 13 January 2026
Orbit: 515 x 525 km, 82.5° (Epoch: 11 February)

Event Time Altitude Azimuth Distance (km) Brightness Sun altitude
Exits shadow 06:29:31 12° 324° (NW) 1,614 5.2 -11.6°
Maximum altitude 06:32:22 27° 270° (W) 1,028 4.2 -11.1°
Drops below altitude 10° 06:35:35 10° 212° (SSW) 1,737 5.7 -10.6°
Sets 06:37:55 0° 200° (SSW) 2,618 6.8 -10.2°
